Overview Statistics Trail Chart Weather Telemetry Raw packets
 

This is the latest recevied weather packets stored in our database for station/object KC5DAQ-26. If no packets are shown the sender has not sent any weather packets the latest 10 day(s).

<< 385 386 387 388 389 390 391 >>
Time Temp. Humidity Pressure Rain* Wind** Luminosity Snow
1788132932 33.89° C 53% 1016.2 hPa 0 mm - 157 W/m² -
1788132871 33.89° C 53% 1016.2 hPa 0 mm - 160 W/m² -
1788132812 33.89° C 52% 1016.2 hPa 0 mm - 162 W/m² -
1788132753 33.89° C 52% 1016.2 hPa 0 mm - 162 W/m² -
1788132691 33.89° C 52% 1016.3 hPa 0 mm - 162 W/m² -
1788132632 33.89° C 53% 1016.2 hPa 0 mm - 169 W/m² -
1788132571 33.89° C 52% 1016.4 hPa 0 mm - 179 W/m² -
1788132511 33.89° C 52% 1016.2 hPa 0 mm - 179 W/m² -
1788132453 33.89° C 53% 1016.2 hPa 0 mm - 190 W/m² -
1788132393 33.89° C 53% 1016.3 hPa 0 mm - 195 W/m² -
1788132332 33.89° C 53% 1016.4 hPa 0 mm - 197 W/m² -
1788132271 33.89° C 52% 1016.3 hPa 0 mm - 199 W/m² -
1788132213 33.89° C 55% 1016.2 hPa 0 mm - 200 W/m² -
1788132151 33.89° C 54% 1016.3 hPa 0 mm - 200 W/m² -
1788132092 33.89° C 53% 1016.3 hPa 0 mm - 206 W/m² -
1788132032 33.89° C 53% 1016.3 hPa 0 mm - 229 W/m² -
1788131973 33.89° C 54% 1016.2 hPa 0 mm - 229 W/m² -
1788131911 33.89° C 54% 1016.3 hPa 0 mm - 227 W/m² -
1788131853 34.44° C 52% 1016.4 hPa 0 mm - 225 W/m² -
1788131793 34.44° C 53% 1016.2 hPa 0 mm - 222 W/m² -
1788131732 34.44° C 51% 1016.1 hPa 0 mm - 204 W/m² -
1788131672 34.44° C 52% 1016.1 hPa 0 mm - 204 W/m² -
1788131613 34.44° C 52% 1016.1 hPa 0 mm - 204 W/m² -
1788131553 34.44° C 52% 1016.2 hPa 0 mm - 204 W/m² -
1788131474 34.44° C 52% 1016.2 hPa 0 mm - 204 W/m² -

* Rain latest hour (hover to see other rain measurements)
** Current wind speed in m/s (hover to see current wind gust speed)